Weather History for Faith, SD

Change the Weather History Date:

Saturday, September 1, 2012

  Actual Average Record
Temperature  
Mean Temperature 86 °F 68 °F  
Max Temperature 104 °F 82 °F 104 °F (2012)
Min Temperature 68 °F 54 °F 48 °F (2005)
Degree Days  
Heating Degree Days 0 2  
Month to date heating degree days 0 2  
Since 1 July heating degree days 15 35  
Cooling Degree Days 21 5  
Month to date cooling degree days 21 5  
Year to date cooling degree days 909 580  
Growing Degree Days 36 (Base 50)    
Moisture  
Dew Point 45 °F    
Average Humidity 32    
Maximum Humidity 53    
Minimum Humidity 10    
Precipitation  
Precipitation 0.00 in 0.06 in 0.68 in (2006)
Month to date precipitation 0.00 0.06  
Year to date precipitation 11.95 13.88  
Sea Level Pressure  
Sea Level Pressure 29.76 in    
Wind  
Wind Speed 19 mph (South)    
Max Wind Speed 36 mph    
Max Gust Speed 45 mph    
T = Trace of Precipitation, MM = Missing Value Source: NWS Daily Summary

Daily Weather History Graph

Daily Weather History Graph

Search for Another Location

Airport:

Trip Planner

Search our weather history database for the weather conditions in past years. The results will help you decide how hot, cold, wet, or windy it might be!

Date:

Astronomy

Sep. 01, 2012 Rise Set
Actual Time 6:10 AM MDT 7:24 PM MDT
Civil Twilight 5:40 AM MDT 7:54 PM MDT
Nautical Twilight 5:03 AM MDT 8:30 PM MDT
Astronomical Twilight 4:25 AM MDT 9:09 PM MDT
Moon 7:34 PM MDT 7:26 AM MDT
Length of Visible Light 14h 14m
Length of Day
13h 13m
Full, 98% of the Moon is Illuminated
Sep 1
Full
Sep 8
Last Quarter
Sep 15
New
Sep 22
First Quarter
Sep 29
Full

Hourly Weather History & Observations

Time (MDT) Temp. Dew Point Humidity Pressure Visibility Wind Dir Wind Speed Gust Speed Precip Events Conditions
12:56 AM 72.0 °F 48.9 °F 44% 29.86 in - SE 20.7 mph 28.8 mph N/A   Unknown
1:56 AM 70.0 °F 50.0 °F 49% 29.86 in - SE 19.6 mph 27.6 mph N/A   Unknown
2:56 AM 70.0 °F 52.0 °F 53% 29.84 in - SE 19.6 mph 28.8 mph N/A   Unknown
3:56 AM 71.1 °F 53.1 °F 53% 29.84 in - SE 18.4 mph 26.5 mph N/A   Unknown
4:56 AM 71.1 °F 52.0 °F 51% 29.83 in - SSE 16.1 mph - N/A   Unknown
5:56 AM 69.1 °F 51.1 °F 53% 29.85 in - SE 17.3 mph - N/A   Unknown
6:56 AM 70.0 °F 48.9 °F 47% 29.85 in - SSE 18.4 mph - N/A   Unknown
7:56 AM 73.9 °F 48.0 °F 40% 29.85 in - SSE 17.3 mph - N/A   Unknown
8:56 AM 79.0 °F 46.0 °F 31% 29.83 in - SSE 17.3 mph - N/A   Unknown
9:56 AM 86.0 °F 41.0 °F 20% 29.82 in - South 20.7 mph 28.8 mph N/A   Unknown
10:56 AM 91.0 °F 39.9 °F 17% 29.81 in - South 23.0 mph 33.4 mph N/A   Unknown
11:56 AM 97.0 °F 35.1 °F 11% 29.76 in - SSW 31.1 mph 44.9 mph N/A   Unknown
12:56 PM 100.0 °F 35.1 °F 10% 29.73 in - South 31.1 mph 41.4 mph N/A   Unknown
1:56 PM 102.0 °F 35.1 °F 10% 29.71 in - South 27.6 mph 42.6 mph N/A   Unknown
2:56 PM 102.0 °F 39.0 °F 11% 29.69 in - South 27.6 mph 38.0 mph N/A   Unknown
3:56 PM 100.9 °F 39.9 °F 12% 29.67 in - South 27.6 mph 34.5 mph N/A   Unknown
4:56 PM 100.9 °F 43.0 °F 14% 29.66 in - South 23.0 mph 28.8 mph N/A   Unknown
5:56 PM 99.0 °F 43.0 °F 15% 29.66 in - South 17.3 mph - N/A   Unknown
6:56 PM 95.0 °F 42.1 °F 16% 29.66 in - SSW 18.4 mph - N/A   Unknown
7:56 PM 89.1 °F 46.9 °F 23% 29.70 in - SSW 20.7 mph 28.8 mph N/A   Unknown
8:56 PM 84.0 °F 46.0 °F 26% 29.71 in - South 9.2 mph - N/A   Unknown
9:56 PM 80.1 °F 45.0 °F 29% 29.70 in - SSW 9.2 mph - N/A   Unknown
10:56 PM 79.0 °F 48.0 °F 34% 29.70 in - WSW 9.2 mph - N/A   Unknown
11:56 PM 78.1 °F 46.9 °F 33% 29.69 in - WSW 3.5 mph - N/A   Unknown